TIME,DELAY(SENSOR),PRES,T(CTD),SAL,OXYGEN,RAWTEMP,T(OPTODE),TCPHASE,FLUOR,BETA(BETA700),BETA(BETA412),BETA(BETA440),CDOM,C(CSC),ED(ED411.90),ED(ED443.80),ED(ED489.40),ED(ED554.70),LU(LU412.20),LU(LU443.80),LU(LU489.40),LU(LU555.00),COMP,TILTX,TILTX(TILTY),CHECK
1362154546,5803,490.1499938964844000,15.4927997589111330,36.0849990844726560,192.1535034179687500,238.2563018798828000,15.4956197738647460,34.2430496215820300,61,243,96,78,69,11681,2146960868,2147513837,2147274907,2147473152,2147081554,2146950491,2147669376,2147122102,3043,-1,8,56849
1362154652,5804,478.4899902343750000,15.7737998962402340,36.1310005187988300,194.0520019531250000,229.1701965332031200,15.7693700790405270,33.9931411743164060,61,243,96,79,69,11683,2146958957,2147512265,2147270765,2147474121,2147082532,2146954450,2147667236,2147120411,3324,-1,8,10929
1362154743,5807,468.1300048828125000,15.8810997009277340,36.1496009826660160,194.8218994140625000,225.3997955322265600,15.8829603195190430,33.8911705017089840,61,266,96,79,69,11685,2146956132,2147515172,2147273545,2147469549,2147084233,2146948571,2147666980,2147121984,3199,-1,8,47139
1362154855,5805,455.8999938964844000,16.0158996582031250,36.1668014526367200,192.3946075439453000,221.0321960449218800,16.0145492553710940,33.9784088134765600,62,254,96,80,69,11674,2146956406,2147513700,2147272960,2147469577,2147085028,2146954980,2147666752,2147113142,1872,-2,8,64746
1362154966,5806,444.8699951171875000,16.2537994384765620,36.2108993530273440,195.8455047607422000,213.0142974853515600,16.2561397552490230,33.6507797241210940,62,262,96,80,70,11682,2146960064,2147513801,2147272886,2147468132,2147081956,2146950912,2147666432,2147118427,1927,-1,8,50378
1362155081,5804,433.8800048828125000,16.4902000427246100,36.2557983398437500,199.7010040283203000,205.3376007080078000,16.4874706268310550,33.3100013732910160,61,269,94,79,70,11683,2146957385,2147513856,2147268717,2147467995,2147081618,2146952164,2147664393,2147128704,2530,-1,8,31524
1362155199,5807,422.8500061035156000,16.7077007293701170,36.3031997680664060,205.2619018554687500,196.8394927978515600,16.7436008453369140,32.8661117553710940,61,235,97,80,69,11683,2146958829,2147512283,2147269686,2147468105,2147084608,2146949860,2147660086,2147117357,1825,-1,9,56138
1362155314,5805,412.2900085449219000,16.8871994018554700,36.3349990844726560,209.8524017333984400,192.0326995849609400,16.8885002136230470,32.5393714904785160,61,239,96,79,69,11684,2146957522,2147512064,2147270875,2147465563,2147085074,2146952758,2147662528,2147123465,2134,-1,8,54570
1362155443,5805,400.9200134277344000,17.1753997802734380,36.3942985534668000,215.6414947509765600,182.6849060058593800,17.1703605651855470,32.0926399230957000,61,260,95,79,68,11686,2146959286,2147514806,2147271049,2147464137,2147077074,2146949211,2147658633,2147125622,1864,-1,8,40180
1362155570,5804,390.1499938964844000,17.2220001220703120,36.4048004150390600,219.2303924560547000,181.0798034667968800,17.2187690734863280,31.8792991638183600,62,244,96,79,68,11684,2146956589,2147513846,2147268068,2147461997,2147085741,2146955373,2147656000,2147126564,1374,-1,8,42291
1362155697,5806,379.7799987792969000,17.3073005676269530,36.4216003417968750,221.0594940185547000,178.2377929687500000,17.3044795989990230,31.7442302703857420,60,233,94,79,68,11683,2146955520,2147511926,2147267410,2147460434,2147083510,2146954742,2147654930,2147126080,842,-1,8,42850
1362155839,5806,368.3099975585937500,17.3236999511718750,36.4253005981445300,222.3358001708984400,177.9635925292968800,17.3127498626709000,31.6743106842041000,61,238,95,79,68,11685,2146957878,2147511552,2147268233,2147460489,2147076452,2146952832,2147655140,2147122870,415,-1,8,53160
1362155978,5806,357.7900085449219000,17.3125000000000000,36.4233016967773440,222.4300994873047000,178.1412963867187500,17.3073902130126950,31.6720104217529300,61,227,94,80,68,11683,2146958884,2147511268,2147270299,2147459840,2147083300,2146953252,2147655533,2147125668,471,-1,8,24170
1362156124,5803,344.1700134277344000,17.3094997406005860,36.4133987426757800,217.8984985351562500,178.2480926513672000,17.3041706085205080,31.9109191894531250,61,253,96,80,68,11679,2146956672,2147513773,2147267584,2147458816,2147081718,2146946441,2147656256,2147125037,3376,-1,7,15949
1362156227,5806,333.3399963378906000,17.4388008117675780,36.4379997253418000,217.9234008789062500,173.8603973388672000,17.4365291595459000,31.8494205474853500,62,247,94,79,68,11683,2146956873,2147513307,2147266980,2147457654,2147077248,2146954267,2147657709,2147124406,2962,-1,8,40259
1362156342,5805,321.1499938964844000,17.5976009368896500,36.4677009582519500,219.6407012939453000,168.3358001708984400,17.6032295227050780,31.6830196380615230,60,237,95,80,67,11683,2146956425,2147513389,2147265334,2147460489,2147075693,2146956617,2147656466,2147127798,2215,-1,8,54275
1362156462,5806,309.7200012207031000,17.6893005371093750,36.4840011596679700,222.0625000000000000,165.6793975830078000,17.6833992004394530,31.5207290649414060,61,259,95,79,67,11679,2146958189,2147514395,2147264822,2147460845,2147069686,2146956854,2147658212,2147124169,1787,-1,8,27547
1362156601,5805,298.8099975585937500,17.6863002777099600,36.4775009155273440,219.0606994628906200,165.7413940429687500,17.6815204620361330,31.6778392791748050,61,235,97,80,67,11674,2146954176,2147515117,2147266669,2147458002,2147074852,2146955803,2147655213,2147126546,922,-1,8,80
1362156754,5807,287.8399963378906000,17.8962993621826170,36.5038986206054700,217.4340972900390600,159.2167968750000000,17.8784809112548830,31.6746101379394530,62,243,95,80,68,11679,2146959734,2147513197,2147268224,2147455972,2147073014,2146958720,2147657097,2147124626,3231,-1,8,58982
1362156941,5808,276.9899902343750000,18.0459003448486330,36.5287017822265600,217.8173065185547000,153.7765045166015600,18.0427608489990230,31.5804100036621100,61,262,95,80,68,11677,2146958656,2147515053,2147268141,2147457069,2147075291,2146955693,2147662427,2147122569,1863,-2,8,60230
1362157098,5808,265.4599914550781000,18.2126007080078120,36.5476989746093750,216.6596069335937500,148.4411010742187500,18.2039299011230470,31.5689601898193360,61,255,96,81,68,11675,2146955757,2147513353,2147268361,2147458925,2147081106,2146963318,2147661083,2147129718,1854,-2,8,46594
1362157225,5805,253.7400054931640600,18.3577995300292970,36.5663986206054700,215.6109008789062500,142.8614044189453000,18.3725490570068360,31.5491008758544920,60,256,96,81,69,11675,2146959716,2147510829,2147263881,2147453668,2147073892,2146966144,2147665590,2147126171,2247,-2,8,55411
1362157342,5803,242.4400024414062500,18.5813007354736330,36.5932998657226560,215.9618988037109400,136.3126068115234400,18.5705394744873050,31.4415397644042970,61,239,96,80,68,11675,2146955830,2147512393,2147267318,2147453942,2147081362,2146967542,2147677796,2147127021,1540,-1,8,61845
1362157457,5805,231.4400024414062500,18.7378005981445300,36.6099014282226560,216.9629058837890600,130.7837066650390600,18.7377605438232420,31.3141708374023440,62,258,95,82,68,11671,2146957440,2147514898,2147264082,2147453942,2147081956,2146966802,2147667584,2147127414,1545,-1,9,1521
1362157584,5804,219.6499938964843800,18.9461994171142580,36.6282997131347660,218.8943023681640600,122.7609024047851600,18.9805603027343750,31.1056308746337900,62,288,96,80,68,11673,2146958610,2147513280,2147264036,2147453878,2147083282,2146972205,2147680786,2147126857,1207,-2,8,58832
1362157690,5804,209.3600006103515600,19.2129001617431640,36.6432991027832000,218.0102996826172000,115.0938034057617200,19.2127609252929700,31.0489902496337900,60,246,97,79,69,11668,2146959716,2147511515,2147263753,2147451666,2147081088,2146969380,2147681984,2147127506,1160,-1,9,42981
1362157805,5804,197.9400024414062500,19.5193004608154300,36.6561012268066400,219.0184936523437500,105.0258026123046900,19.5179290771484380,30.8625602722167970,62,239,98,82,67,11653,2146955529,2147514249,2147265161,2147447424,2147079707,2146975460,2147675483,2147126710,870,-1,8,22917
1362157860,5804,192.9799957275390600,19.8630008697509770,36.6791992187500000,218.9376983642578000,93.4034271240234400,19.8705997467041000,30.7126598358154300,63,261,97,81,68,11651,2146957851,2147514240,2147263853,2147448228,2147082560,2146975817,2147683721,2147129042,1219,-2,9,4985
1362157915,5805,188.6900024414062500,19.9549999237060550,36.6771011352539060,219.8961029052734400,90.9776763916015600,19.9442691802978500,30.6313800811767580,62,250,99,82,68,11659,2146957961,2147517312,2147266368,2147447963,2147083126,2146998482,2147748022,2147130066,1618,-2,9,2926
1362157991,5806,183.6000061035156200,20.0583000183105470,36.6819992065429700,220.3730010986328000,86.8630065917968800,20.0692691802978500,30.5526199340820300,62,253,97,83,68,11654,2146955154,2147516096,2147268324,2147447378,2147084068,2147007204,2147759149,2147131794,1264,-2,8,28565
1362158046,5805,180.5000000000000000,20.1690998077392580,36.6856994628906250,221.0825042724609400,83.9482879638671900,20.1578502655029300,30.4783592224121100,62,253,98,81,67,11648,2146953453,2147514806,2147267044,2147445668,2147085366,2147004269,2147749339,2147130779,561,-2,9,23518
1362158125,5806,176.3200073242187500,20.2105998992919920,36.6874008178710940,221.6529998779297000,82.2804107666015600,20.2085494995117200,30.4275207519531250,62,249,99,82,66,11652,2146957056,2147514386,2147269686,2147447670,2147084297,2147013668,2147774272,2147130953,257,-1,9,18439
1362158204,5805,172.3699951171875000,20.3780002593994140,36.6832008361816400,222.9008941650390600,76.8880081176757800,20.3725490570068360,30.2938404083251950,62,226,100,83,68,11651,2146953088,2147512877,2147263780,2147443126,2147088832,2147039241,2147831350,2147138002,1359,-2,9,51229
1362158285,5804,168.7700042724609400,20.5058002471923830,36.6795005798339840,226.2393035888672000,72.8437500000000000,20.4956302642822270,30.0747795104980470,63,262,99,83,66,11639,2146956754,2147514660,2147269147,2147443657,2147090130,2147041773,2147845622,2147137636,1079,-1,8,49955
1362158376,5801,164.8800048828125000,20.6481990814209000,36.6745986938476560,229.1199035644531200,68.0927734375000000,20.6402893066406250,29.8721809387207030,63,238,100,83,66,11626,2146956708,2147516608,2147266889,2147443721,2147090240,2147031469,2147808594,2147133302,1488,-2,8,5901
1362158491,5804,161.1199951171875000,20.8041000366210940,36.6719017028808600,233.4837951660156200,63.0010185241699200,20.7954292297363280,29.5971202850341800,65,272,102,85,66,11625,2146957321,2147517001,2147266432,2147444233,2147089142,2147026998,2147795812,2147133787,1656,-2,9,35178
1362158638,5805,157.0000000000000000,20.9878005981445300,36.6619987487793000,239.3372039794922000,56.5802993774414060,20.9912109375000000,29.2418403625488280,67,284,102,86,65,11610,2146955346,2147517193,2147267876,2147438811,2147094235,2147066733,2147882468,2147139465,1249,-2,9,22224
1362158753,5805,152.8000030517578000,21.0587997436523440,36.6559982299804700,244.3188018798828000,54.4727096557617200,21.0555191040039060,28.9891700744628900,67,295,102,87,63,11604,2146958089,2147512228,2147268809,2147438875,2147092050,2147053065,2147838409,2147137709,1405,-2,9,63984
1362158856,5804,148.6699981689453000,21.0699996948242200,36.6535987854003900,246.9058074951172000,54.1293792724609400,21.0659999847412100,28.8698291778564450,67,334,103,86,64,11595,2146957787,2147516105,2147270473,2147439140,2147098989,2147078784,2147903963,2147138139,1151,-1,9,19541
1362158948,5806,143.6399993896484400,21.1007003784179700,36.6501998901367200,247.9373016357422000,53.1005592346191400,21.0973892211914060,28.8112792968750000,67,259,104,91,63,11589,2146957056,2147519040,2147269824,2147437650,2147103954,2147106651,2147940004,2147143506,1704,-2,9,26743
1362159003,5804,139.8500061035156200,21.1044006347656250,36.6503982543945300,248.4938964843750000,52.9891281127929700,21.1007995605468750,28.7854595184326170,68,340,103,86,62,11597,2146957979,2147516946,2147273435,2147439341,2147114267,2147154203,2148042404,2147148955,2009,-2,9,58054
1362159058,5805,136.0299987792968800,21.1046009063720700,36.6487998962402340,248.9060058593750000,52.9830284118652340,21.1009807586669920,28.7672290802001950,67,296,105,85,63,11590,2146958628,2147517513,2147275136,2147435245,2147121051,2147173129,2148072896,2147150418,1912,-1,9,16931
1362159113,5808,132.2100067138672000,21.1140995025634770,36.6478004455566400,249.2480926513672000,52.5498085021972660,21.1142005920410160,28.7468605041503900,70,303,104,88,63,11591,2146956434,2147518857,2147272822,2147436516,2147116388,2147154889,2148033371,2147147392,1794,-2,9,56430
1362159180,5805,127.7900009155273400,21.1277999877929700,36.6450996398925800,250.0502014160156200,52.1741294860839840,21.1256694793701170,28.7071800231933600,71,389,102,87,63,11588,2146958244,2147522806,2147280777,2147437083,2147136338,2147232091,2148191305,2147155529,1519,-2,9,16936
1362159256,5802,123.3799972534179700,21.1299991607666000,36.6449012756347660,250.6719055175781200,52.1239700317382800,21.1271991729736330,28.6794605255126950,70,320,105,88,62,11575,2146955940,2147522130,2147286354,2147435355,2147156461,2147297334,2148309092,2147163757,1360,-2,9,17930
1362159335,5804,119.5500030517578100,21.1634006500244140,36.6444015502929700,250.5160980224609400,51.1363601684570300,21.1573505401611330,28.6737709045410160,69,290,105,86,63,11593,2146959350,2147524260,2147288265,2147437028,2147166765,2147324635,2148336374,2147164845,1519,-1,9,30750
1362159426,5803,115.7900009155273400,21.1711006164550780,36.6449012756347660,250.4320983886718800,50.8725891113281250,21.1654090881347660,28.6742095947265620,68,385,104,87,62,11588,2146958765,2147526921,2147289874,2147438930,2147187419,2147374290,2148422189,2147170788,1623,-1,9,28298
1362159529,5808,111.7900009155273400,21.1781005859375000,36.6447982788085940,249.9698028564453000,50.6272087097168000,21.1728992462158200,28.6910991668701170,69,286,101,88,64,11591,2146962733,2147530706,2147297261,2147439140,2147222107,2147489536,2148632740,2147185024,1737,-1,9,17917
1362159635,5807,108.2099990844726600,21.2103996276855470,36.6352996826171900,250.5274047851562500,49.4401588439941400,21.2091503143310550,28.6519908905029300,70,333,104,86,64,11579,2146960100,2147529270,2147296320,2147432713,2147221065,2147465142,2148575076,2147184548,1838,-1,9,59974
1362159914,5802,103.8799972534179700,21.2801990509033200,36.6223983764648440,250.9927062988281200,47.3783988952636700,21.2721195220947270,28.6058006286621100,72,369,104,89,63,11550,2146967085,2147531968,2147305389,2147436598,2147274441,2147607286,2148824091,2147201929,1075,-1,9,55062
1362160053,5805,100.1299972534179700,21.3069992065429700,36.6228981018066400,249.0229949951172000,46.0241508483886700,21.3134899139404300,28.6745090484619140,71,290,103,87,63,11571,2146964854,2147530953,2147303798,2147436187,2147273837,2147561088,2148745526,2147200630,1194,-2,9,35089
1362160108,5804,98.9100036621093800,21.3376007080078120,36.6179008483886700,248.6945953369140600,45.4098701477050800,21.3322601318359380,28.6811790466308600,72,337,103,87,63,11563,2146961709,2147530541,2147298075,2147439442,2147254354,2147476443,2148596626,2147192521,1029,-1,9,16627
1362160175,5806,97.3399963378906200,21.3435993194580080,36.6096992492675800,249.2615051269531200,45.1771812438964840,21.3393707275390620,28.6532707214355470,75,368,104,88,62,11552,2146964260,2147529435,2147300790,2147436736,2147267163,2147513993,2148645888,2147196818,797,-2,9,58061
1362160255,5807,94.7699966430664000,21.3444004058837900,36.6087989807128900,250.0845031738281200,45.1451187133789060,21.3403491973876950,28.6171302795410160,74,330,105,91,63,11540,2146967222,2147539520,2147323154,2147438857,2147391012,2147832073,2149245778,2147239844,450,-2,9,9179
1362160310,5807,92.1800003051757800,21.3516998291015620,36.6012992858886700,250.6175994873047000,44.8070907592773440,21.3506793975830080,28.5898609161376950,76,390,104,89,63,11539,2146967369,2147545106,2147331154,2147441206,2147440036,2147922395,2149361929,2147255049,241,-1,9,8217
1362160365,5808,88.9899978637695300,21.3607997894287100,36.5919990539550800,251.5455017089843800,44.6294784545898440,21.3561096191406250,28.5473995208740230,76,344,107,89,62,11528,2146969572,2147548288,2147334317,2147438656,2147489261,2148000374,2149476278,2147271433,94,-1,9,45126
1362160420,5806,85.6600036621093800,21.3598995208740230,36.5931015014648440,252.6840057373047000,44.6343002319335940,21.3559608459472660,28.4985008239746100,77,315,106,90,63,11512,2146975945,2147556790,2147354331,2147443364,2147611053,2148240000,2149882834,2147311616,679,-2,8,27042
1362160475,5806,82.2900009155273400,21.3598995208740230,36.5927009582519500,253.2906036376953000,44.5984992980957000,21.3570499420166000,28.4720191955566400,77,303,107,90,61,11496,2146983597,2147572525,2147379328,2147442267,2147810002,2148656630,2150550720,2147383469,877,-2,9,2304
1362160533,5803,78.4800033569336000,21.3603992462158200,36.5914001464843750,253.3356018066406200,44.6101989746093750,21.3567008972167970,28.4701805114746100,77,359,106,90,61,11512,2147000365,2147599277,2147427346,2147445979,2148166802,2149388626,2151740388,2147511140,1284,-2,9,20274
1362160588,5805,74.4499969482421900,21.3612003326416000,36.5903015136718750,253.5550994873047000,44.5804100036621100,21.3576107025146500,28.4604892730712900,78,353,106,89,63,11521,2147006454,2147613613,2147458788,2147451108,2148423689,2149824091,2152369398,2147599442,1032,-1,9,21872
1362160643,5807,70.4599990844726600,21.3609008789062500,36.5899009704589840,253.7304992675781200,44.5879783630371100,21.3573799133300780,28.4531593322753900,76,347,105,91,63,11497,2147016493,2147617024,2147466806,2147453924,2148532150,2149924160,2152391122,2147624868,633,-2,8,64873
1362160698,5807,66.7600021362304700,21.3710002899169920,36.5821990966796900,254.0375976562500000,44.2310791015625000,21.3682804107666000,28.4353904724121100,78,310,107,88,63,11479,2147019474,2147625773,2147469403,2147457746,2148655378,2150051483,2152466998,2147664173,477,-1,9,26441
1362160753,5806,63.1500015258789060,21.3722000122070300,36.5805015563964840,254.6470947265625000,44.1907501220703100,21.3695201873779300,28.4090194702148440,78,361,106,90,63,11485,2147028507,2147635602,2147489700,2147460242,2148886665,2150370633,2152857536,2147742125,617,-2,9,9633
1362160808,5805,59.4700012207031250,21.3728008270263670,36.5796012878418000,254.8325042724609400,44.1717681884765600,21.3701000213623050,28.4008693695068360,79,344,106,90,61,11505,2147047972,2147665536,2147539968,2147468873,2149401773,2151183433,2153914294,2147932132,667,-2,9,64230
1362160884,5806,54.7900009155273440,21.3724002838134770,36.5764007568359400,255.1647949218750000,44.2106208801269500,21.3689098358154300,28.3872299194335940,80,349,106,91,62,11485,2147085760,2147712237,2147615716,2147481490,2150280941,2152512521,2155625225,2148241920,504,-2,9,33969
1362161026,5806,48.4000015258789060,21.3722991943359380,36.5736007690429700,255.4718017578125000,44.2043190002441400,21.3691005706787100,28.3743095397949220,81,372,108,91,62,11470,2147168722,2147818276,2147759670,2147511442,2152334381,2155417764,2159074934,2148962523,179,-1,9,25806
1362161061,5805,46.5800018310546900,21.3724994659423830,36.5728988647460940,255.5274963378906200,44.1507186889648440,21.3707408905029300,28.3711109161376950,80,386,108,90,63,11463,2147195245,2147852699,2147807506,2147522889,2153109897,2156441280,2160211099,2149240978,207,-2,9,47089
1362161094,5808,44.7799987792968750,21.3736000061035160,36.5719985961914060,255.6439971923828000,44.1329193115234400,21.3712806701660160,28.3661003112792970,81,323,108,89,61,11456,2147227849,2147891346,2147856987,2147534262,2153902848,2157519296,2161452800,2149525750,99,-2,9,28025
1362161140,5804,42.3899993896484400,21.3735008239746100,36.5714988708496100,255.8930969238281200,44.1427612304687500,21.3709793090820300,28.3555603027343750,80,307,107,92,63,11440,2147277869,2147950473,2147934948,2147550957,2155194468,2159199094,2163303716,2150009837,3334,-2,9,16980
1362161175,5806,40.6599998474121100,21.3696994781494140,36.5713005065918000,255.9786987304687500,44.2176017761230500,21.3686904907226560,28.3530101776123050,85,469,109,91,62,11449,2147321664,2147999853,2147998281,2147565202,2156227428,2160545636,2164813485,2150390326,2981,-2,9,37547
1362161221,5806,38.5499992370605500,21.3684005737304700,36.5713996887207000,256.2510070800781000,44.2199592590332000,21.3686199188232420,28.3414497375488280,84,504,106,90,62,11461,2147404224,2148096749,2148133430,2147600082,2158254180,2163303780,2168054061,2151209481,2853,-2,9,59405
1362161267,5807,36.5400009155273440,21.3689994812011720,36.5700988769531250,256.3203125000000000,44.2088508605957000,21.3689594268798830,28.3382892608642580,83,441,109,90,63,11448,2147478272,2148195465,2148259291,2147630930,2160162450,2165777536,2170782683,2151960493,2644,-2,9,22495
1362161313,5803,34.5800018310546900,21.3715991973876950,36.5700988769531250,256.1438903808594000,44.1223983764648440,21.3715991973876950,28.3446998596191400,83,367,107,90,62,11454,2147463003,2148153618,2148184374,2147630198,2159642148,2164551725,2168753801,2151683830,2457,-2,9,20442
1362161359,5804,32.6300010681152340,21.3731002807617200,36.5694999694824200,256.4811096191406000,44.0638809204101560,21.3733901977539060,28.3297901153564450,82,555,109,90,61,11436,2147541878,2148251044,2148307611,2147663259,2161639268,2167110436,2171585042,2152501202,2452,-1,8,63562
1362161405,5805,30.7399997711181640,21.3749008178710940,36.5689010620117200,256.7067871093750000,44.0069389343261700,21.3751296997070300,28.3195590972900400,83,473,106,90,61,11434,2147687012,2148410880,2148519104,2147723483,2165256100,2171739693,2176667474,2154020032,2457,-2,9,47220
1362161464,5808,28.3799991607666000,21.3766002655029300,36.5685997009277340,256.7809143066406000,43.9060401916503900,21.3782196044921880,28.3150405883789060,83,449,110,91,62,11439,2148034825,2148834404,2149073737,2147861321,2174327698,2183815186,2190400896,2157977856,2542,-1,9,49156
1362161512,5806,26.3600006103515620,21.3791999816894530,36.5675010681152340,256.9574890136719000,43.7848701477050800,21.3819198608398440,28.3063392639160160,82,500,109,91,61,11425,2148120475,2148898642,2149137837,2147913965,2176348361,2185667794,2191617718,2158787949,2699,-1,8,52827
